Retour au catalogue

SDA_1674

ActifMilitairePO
NORAD 65984·PAYLOAD·🇺🇸 United States

Lancé Oct 15, 2025 depuis Vandenberg Space Force Base

Loading…

Prochains Passages (prochaines 24 heures)

TLE

FraisSource: Space-Track

Époque: Sep 14, 2026, 14:56 UTC

1 65984U 25230L   26257.62225938  .00000122  00000-0  10258-3 0  9997
2 65984  81.2996 129.1926 0001710  33.2394 326.8869 13.82090036 46163

Suivez SDA_1674 en temps réel avec AllMySat

Download on the App Store